When you browse on this site, cookies collect data to enhance your experience and personalize the content and advertising you see.
Visit our Privacy Policy to learn more. By continuing to use the site, you agree to this use of cookies and data.
  • în România
  • Lista ţărilor
  • Pe 7 zile
  • Temperatura apei
  • Hartă satelitară
  • Meteo pe hartă
  • Widget-uri
  • user-avatar
    Intrare

    Meteo pe oră la Kranston

    Astăzi, 23 Februarie, Sâmbătă

    Timp Temperatura Precipitaţii Vânt Presiune Umiditate
    00:00 0°C° 0 mm 1 m/s 771 mmHg 89%
    01:00 0°C° 0 mm 1 m/s 772 mmHg 90%
    02:00 0°C° 0 mm 1 m/s 772 mmHg 89%
    03:00 -1°C° 0 mm 1 m/s 772 mmHg 88%
    04:00 -1°C° 0 mm 1 m/s 772 mmHg 87%
    05:00 -1°C° 0 mm 1 m/s 772 mmHg 85%
    06:00 -1°C° 0 mm 1 m/s 772 mmHg 84%
    07:00 -3°C° 0 mm 2 m/s 773 mmHg 78%
    08:00 -2°C° 0 mm 2 m/s 772 mmHg 71%
    09:00 +2°C° 0 mm 1 m/s 772 mmHg 64%
    10:00 +3°C° 0 mm 1 m/s 772 mmHg 58%
    11:00 +4°C° 0 mm 1 m/s 772 mmHg 56%
    12:00 +5°C° 0 mm 1 m/s 772 mmHg 54%
    13:00 +7°C° 0 mm 1 m/s 771 mmHg 52%
    14:00 +6°C° 0 mm 1 m/s 771 mmHg 56%
    15:00 +5°C° 0 mm 1 m/s 770 mmHg 61%
    16:00 +5°C° 0 mm 1 m/s 770 mmHg 66%
    17:00 +3°C° 0 mm 1 m/s 770 mmHg 71%
    18:00 +2°C° 0 mm 1 m/s 770 mmHg 77%
    19:00 +1°C° 0 mm 1 m/s 769 mmHg 82%
    20:00 +1°C° 0 mm 1 m/s 769 mmHg 82%
    21:00 +1°C° 0 mm 1 m/s 769 mmHg 82%
    22:00 +1°C° 0 mm 1 m/s 768 mmHg 82%
    23:00 +2°C° 0 mm 1 m/s 768 mmHg 83%

    Mâine, 24 Februarie, Duminică

    Timp Temperatura Precipitaţii Vânt Presiune Umiditate
    00:00 +2°C° 0 mm 1 m/s 767 mmHg 85%
    01:00 +2°C° 0 mm 1 m/s 767 mmHg 86%
    02:00 +1°C° 0 mm 2 m/s 766 mmHg 87%
    03:00 +2°C° 0 mm 2 m/s 765 mmHg 89%
    04:00 +2°C° 0 mm 2 m/s 764 mmHg 90%
    05:00 +2°C° 0.2 mm 3 m/s 763 mmHg 90%
    06:00 +2°C° 0.2 mm 3 m/s 762 mmHg 90%
    07:00 +3°C° 0.2 mm 4 m/s 761 mmHg 91%
    08:00 +4°C° 1.1 mm 4 m/s 759 mmHg 92%
    09:00 +3°C° 1.1 mm 5 m/s 758 mmHg 93%
    10:00 +5°C° 1.1 mm 5 m/s 756 mmHg 94%
    11:00 +5°C° 1.5 mm 6 m/s 754 mmHg 94%
    12:00 +5°C° 1.5 mm 6 m/s 752 mmHg 94%
    13:00 +7°C° 1.5 mm 6 m/s 750 mmHg 94%
    14:00 +8°C° 0.9 mm 6 m/s 748 mmHg 95%
    15:00 +8°C° 0.9 mm 5 m/s 746 mmHg 96%
    16:00 +8°C° 0.9 mm 4 m/s 744 mmHg 96%
    17:00 +8°C° 0.2 mm 4 m/s 744 mmHg 96%
    18:00 +10°C° 0.2 mm 4 m/s 743 mmHg 96%
    19:00 +10°C° 0.2 mm 3 m/s 742 mmHg 95%
    20:00 +7°C° 0.5 mm 4 m/s 742 mmHg 87%
    21:00 +6°C° 0.5 mm 5 m/s 743 mmHg 79%
    22:00 +3°C° 0.5 mm 6 m/s 743 mmHg 71%
    23:00 +3°C° 0 mm 7 m/s 743 mmHg 71%

    Poimâine, 25 Februarie, Luni

    Timp Temperatura Precipitaţii Vânt Presiune Umiditate
    00:00 +2°C° 0 mm 7 m/s 743 mmHg 71%
    01:00 +2°C° 0 mm 7 m/s 743 mmHg 71%
    02:00 0°C° 0 mm 7 m/s 744 mmHg 70%
    03:00 -1°C° 0 mm 7 m/s 744 mmHg 69%
    04:00 -1°C° 0 mm 7 m/s 744 mmHg 68%
    05:00 -2°C° 0 mm 7 m/s 745 mmHg 66%
    06:00 -2°C° 0 mm 7 m/s 745 mmHg 64%
    07:00 -3°C° 0 mm 7 m/s 746 mmHg 62%
    08:00 -2°C° 0 mm 8 m/s 747 mmHg 57%
    09:00 -3°C° 0 mm 9 m/s 747 mmHg 52%
    10:00 -1°C° 0 mm 9 m/s 748 mmHg 47%
    11:00 -2°C° 0 mm 10 m/s 748 mmHg 46%
    12:00 0°C° 0 mm 10 m/s 749 mmHg 45%
    13:00 0°C° 0 mm 10 m/s 749 mmHg 43%
    14:00 -2°C° 0 mm 10 m/s 750 mmHg 44%
    15:00 -2°C° 0 mm 10 m/s 751 mmHg 44%
    16:00 -3°C° 0 mm 10 m/s 752 mmHg 44%
    17:00 -4°C° 0 mm 9 m/s 754 mmHg 46%
    18:00 -5°C° 0 mm 9 m/s 755 mmHg 48%
    19:00 -6°C° 0 mm 8 m/s 756 mmHg 50%
    20:00 -7°C° 0 mm 8 m/s 757 mmHg 50%
    21:00 -7°C° 0 mm 7 m/s 758 mmHg 50%
    22:00 -8°C° 0 mm 7 m/s 759 mmHg 49%
    23:00 -8°C° 0 mm 7 m/s 760 mmHg 48%

    26 Februarie, Marţi

    Timp Temperatura Precipitaţii Vânt Presiune Umiditate
    00:00 -9°C° 0 mm 7 m/s 760 mmHg 47%
    01:00 -9°C° 0 mm 6 m/s 761 mmHg 46%
    02:00 -10°C° 0 mm 6 m/s 762 mmHg 44%
    03:00 -10°C° 0 mm 6 m/s 763 mmHg 42%
    04:00 -12°C° 0 mm 7 m/s 763 mmHg 40%
    05:00 -11°C° 0 mm 6 m/s 764 mmHg 39%
    06:00 -11°C° 0 mm 6 m/s 765 mmHg 39%
    07:00 -12°C° 0 mm 6 m/s 766 mmHg 39%
    08:00 -11°C° 0 mm 6 m/s 766 mmHg 36%
    09:00 -10°C° 0 mm 6 m/s 767 mmHg 32%
    10:00 -9°C° 0 mm 7 m/s 767 mmHg 29%
    11:00 -9°C° 0 mm 7 m/s 767 mmHg 27%
    12:00 -8°C° 0 mm 7 m/s 767 mmHg 26%
    13:00 -7°C° 0 mm 7 m/s 767 mmHg 24%
    14:00 -7°C° 0 mm 7 m/s 767 mmHg 25%
    15:00 -8°C° 0 mm 7 m/s 767 mmHg 25%
    16:00 -8°C° 0 mm 7 m/s 767 mmHg 26%
    17:00 -9°C° 0 mm 7 m/s 768 mmHg 28%
    18:00 -10°C° 0 mm 6 m/s 769 mmHg 30%
    19:00 -11°C° 0 mm 6 m/s 770 mmHg 32%
    20:00 -11°C° 0 mm 6 m/s 770 mmHg 34%
    21:00 -12°C° 0 mm 5 m/s 771 mmHg 35%
    22:00 -12°C° 0 mm 5 m/s 771 mmHg 36%
    23:00 -12°C° 0 mm 5 m/s 771 mmHg 37%

    27 Februarie, Miercuri

    Timp Temperatura Precipitaţii Vânt Presiune Umiditate
    00:00 -12°C° 0 mm 4 m/s 771 mmHg 38%
    01:00 -12°C° 0 mm 4 m/s 772 mmHg 39%
    02:00 -12°C° 0 mm 4 m/s 772 mmHg 39%
    03:00 -14°C° 0 mm 4 m/s 772 mmHg 39%
    04:00 -13°C° 0 mm 3 m/s 772 mmHg 40%
    05:00 -13°C° 0 mm 3 m/s 772 mmHg 39%
    06:00 -12°C° 0 mm 2 m/s 772 mmHg 39%
    07:00 -12°C° 0 mm 2 m/s 773 mmHg 38%
    08:00 -10°C° 0 mm 2 m/s 772 mmHg 33%
    09:00 -8°C° 0 mm 2 m/s 772 mmHg 28%
    10:00 -6°C° 0 mm 1 m/s 772 mmHg 23%
    11:00 -3°C° 0 mm 1 m/s 771 mmHg 20%
    12:00 -1°C° 0 mm 1 m/s 771 mmHg 18%
    13:00 0°C° 0 mm 1 m/s 770 mmHg 16%
    14:00 -2°C° 0 mm 2 m/s 769 mmHg 20%
    15:00 -2°C° 0 mm 2 m/s 768 mmHg 24%
    16:00 -2°C° 0 mm 3 m/s 767 mmHg 29%
    17:00 -4°C° 0.1 mm 3 m/s 766 mmHg 40%
    18:00 -5°C° 0.1 mm 3 m/s 766 mmHg 51%
    19:00 -6°C° 0.1 mm 3 m/s 765 mmHg 63%
    20:00 -5°C° 0.9 mm 2 m/s 764 mmHg 72%
    21:00 -4°C° 0.9 mm 2 m/s 763 mmHg 82%
    22:00 -4°C° 0.9 mm 2 m/s 761 mmHg 92%
    23:00 -4°C° 1.5 mm 2 m/s 760 mmHg 93%

    28 Februarie, Joi

    Timp Temperatura Precipitaţii Vânt Presiune Umiditate
    00:00 -3°C° 1.5 mm 2 m/s 758 mmHg 93%
    01:00 -3°C° 1.5 mm 2 m/s 757 mmHg 94%
    02:00 -3°C° 0.6 mm 2 m/s 756 mmHg 94%
    03:00 -1°C° 0.6 mm 1 m/s 756 mmHg 95%
    04:00 -1°C° 0.6 mm 1 m/s 755 mmHg 95%
    05:00 -1°C° 0 mm 1 m/s 755 mmHg 94%
    06:00 -3°C° 0 mm 2 m/s 755 mmHg 93%
    07:00 -3°C° 0 mm 2 m/s 756 mmHg 92%
    08:00 -2°C° 0 mm 3 m/s 756 mmHg 83%
    09:00 -1°C° 0 mm 4 m/s 757 mmHg 74%
    10:00 0°C° 0 mm 5 m/s 757 mmHg 66%
    11:00 0°C° 0 mm 5 m/s 758 mmHg 63%
    12:00 +1°C° 0 mm 5 m/s 758 mmHg 60%
    13:00 +1°C° 0 mm 5 m/s 758 mmHg 58%
    14:00 +1°C° 0 mm 5 m/s 759 mmHg 59%
    15:00 0°C° 0 mm 4 m/s 759 mmHg 60%
    16:00 0°C° 0 mm 4 m/s 760 mmHg 61%
    17:00 -2°C° 0 mm 4 m/s 761 mmHg 66%
    18:00 -2°C° 0 mm 3 m/s 761 mmHg 72%
    19:00 -4°C° 0 mm 2 m/s 762 mmHg 77%
    20:00 -4°C° 0 mm 2 m/s 763 mmHg 77%
    21:00 -6°C° 0 mm 3 m/s 763 mmHg 78%
    22:00 -6°C° 0 mm 3 m/s 764 mmHg 78%
    23:00 -5°C° 0 mm 2 m/s 764 mmHg 79%
    Arată mai mult